Location: St. Clair Shores
(42.4970°N, 82.8890°W)
Time: 07:11:38
(UTC-05:00)

OTV 5 (USA 277) - Visible Passes

Search period start: 19 December 2018 00:00
Search period end: 29 December 2018 00:00
Orbit: 340 x 348 km, 54.5° (Epoch: 17 December)

Date Brightness Start Highest point End Pass type
(mag) Time Alt. Az. Time Alt. Az. Time Alt. Az.
24 Dec ? 18:41:44 10° S 18:43:11 19° SSE 18:43:11 19° SSE visible
25 Dec ? 19:04:38 10° SW 19:06:26 34° SW 19:06:26 34° SW visible
26 Dec ? 17:54:12 10° S 17:56:28 20° SE 17:58:09 13° E visible
26 Dec ? 19:28:32 10° W 19:29:36 18° W 19:29:36 18° W visible
27 Dec ? 18:17:04 10° SW 18:19:56 72° SE 18:21:14 29° ENE visible
28 Dec ? 18:40:56 10° WSW 18:43:38 35° NNW 18:44:15 31° N visible
